User: anonymous   Login
Location: Ammerl�gen
(47.2167°N, 9.6000°E)
Time: 11:20:26
(UTC+00:00)
Language:

TIGRISAT - Orbit

View from above orbital plane
View from above orbital plane
View from above satellite
View from above satellite

Ground track
Ground track

The orbit data is extracted from the following two-line orbital elements,

1 40043U 14033AK  21339.79564037  .00000293  00000-0  49870-4 0  9997
2 40043  97.6585 174.4963 0060926  64.2567 296.4914 14.74648462401084
Epoch (UTC): 05 December 2021 19:05:43
Eccentricity: 0.0060926
inclination: 97.6585°
perigee height: 603 km
apogee height: 689 km
right ascension of ascending node: 174.4963°
argument of perigee: 64.2567°
revolutions per day: 14.74648462
mean anomaly at epoch: 296.4914°
orbit number at epoch: 40108

The dashed part of the orbit path shows where the satellite is in the earth's shadow,  

DLR